BEIDOU-2 G7

Last updated on Sat Aug 15 2026 00:03:00 GMT+0000 (Coordinated Universal Time)

1 41586U 16037A 26226.58979475 -.00000368 00000+0 00000+0 0 9999 2 41586 1.8608 69.6221 0005147 0.6250 215.6009 1.00267729 7470
UTC large
Height (km)
Speed (km/s)
/
Latitude / Longitude
Inclination (degrees)
Orbital Period (minutes)
Azimuth
Elevation
Range (km)
Doppler Factor

Next 0 passes for location: London (51.5072 / 0.1276)

No passes found over London.
BEIDOU-2 G7